This is the latest recevied weather packets stored in our database for station/object W0WFX-2. If no packets are shown the sender has not sent any weather packets the latest 10 day(s).
| Time | Temp. | Humidity | Pressure | Rain* | Wind** | Luminosity | Snow |
|---|---|---|---|---|---|---|---|
| 1788453999 | 35° C | 45% | 1013.9 hPa | 0 mm | - | 673 W/m² | - |
| 1788453696 | 34.44° C | 46% | 1013.8 hPa | 0 mm | - | 666 W/m² | - |
| 1788453409 | 35° C | 45% | 1013.8 hPa | 0 mm | - | 656 W/m² | - |
| 1788453087 | 35° C | 45% | 1013.9 hPa | 0 mm | - | 648 W/m² | - |
| 1788452782 | 35° C | 46% | 1014 hPa | 0 mm | - | 639 W/m² | - |
| 1788452478 | 34.44° C | 46% | 1014.1 hPa | 0 mm | - | 631 W/m² | - |
| 1788452178 | 35° C | 45% | 1014 hPa | 0 mm | - | 619 W/m² | - |
| 1788451874 | 33.89° C | 46% | 1014 hPa | 0 mm | - | 611 W/m² | - |
| 1788451569 | 33.89° C | 47% | 1014.1 hPa | 0 mm | - | 603 W/m² | - |
| 1788451263 | 34.44° C | 46% | 1014.3 hPa | 0 mm | - | 592 W/m² | - |
| 1788450962 | 35° C | 45% | 1014.1 hPa | 0 mm | - | 581 W/m² | - |
| 1788450657 | 35° C | 46% | 1014.1 hPa | 0 mm | - | 570 W/m² | - |
| 1788450353 | 33.89° C | 47% | 1014 hPa | 0 mm | - | 558 W/m² | - |
| 1788450049 | 33.89° C | 48% | 1014.1 hPa | 0 mm | - | 546 W/m² | - |
| 1788449744 | 33.33° C | 50% | 1013.9 hPa | 0 mm | - | 534 W/m² | - |
| 1788449440 | 33.33° C | 50% | 1014.1 hPa | 0 mm | - | 518 W/m² | - |
| 1788449136 | 32.78° C | 52% | 1014 hPa | 0 mm | - | 506 W/m² | - |
| 1788448833 | 32.22° C | 54% | 1014.2 hPa | 0 mm | - | 489 W/m² | - |
| 1788448531 | 32.22° C | 55% | 1014.1 hPa | 0 mm | - | 475 W/m² | - |
| 1788448227 | 31.67° C | 55% | 1014.1 hPa | 0 mm | - | 462 W/m² | - |
| 1788447926 | 31.11° C | 55% | 1014 hPa | 0 mm | - | 447 W/m² | - |
| 1788447622 | 31.11° C | 55% | 1014.1 hPa | 0 mm | - | 431 W/m² | - |
| 1788447316 | 31.11° C | 56% | 1014.1 hPa | 0 mm | - | 79 W/m² | - |
| 1788447012 | 30.56° C | 58% | 1014.3 hPa | 0 mm | - | 256 W/m² | - |
| 1788446710 | 30° C | 59% | 1014.2 hPa | 0 mm | - | 411 W/m² | - |
* Rain latest hour (hover to see other rain measurements)
** Current wind speed in m/s (hover to see current wind gust speed)